| time (UTC) | temp C | wind direction | speed KPH | gust KPH | rain 1hr cm | rain 24hr cm | rain mn cm | humidity % | barometer mb |
| 20260831013042 | 20 | 203 | 1.6 | 4.8 | 0.00 | 0.00 | 0.00 | 85 | 1018.1 |
| 20260831012020 | 20 | 180 | 1.6 | 4.8 | 0.00 | 0.00 | 0.00 | 84 | 1018.0 |
| 20260831011022 | 20 | 0.0 | 3.2 | 0.00 | 0.00 | 0.00 | 84 | 1017.9 | |
| 20260831010020 | 20 | 0.0 | 3.2 | 0.00 | 0.00 | 0.00 | 83 | 1017.9 | |
| 20260831005020 | 20 | 0.0 | 3.2 | 0.00 | 0.00 | 0.00 | 83 | 1018.0 | |
| 20260831004020 | 20 | 248 | 1.6 | 3.2 | 0.00 | 0.00 | 0.00 | 83 | 1017.9 |
| 20260831003040 | 20 | 0.0 | 3.2 | 0.00 | 0.00 | 0.00 | 83 | 1017.6 | |
| 20260831002020 | 20 | 248 | 1.6 | 3.2 | 0.00 | 0.00 | 0.00 | 83 | 1017.3 |
| 20260831001020 | 20 | 248 | 1.6 | 4.8 | 0.00 | 0.00 | 0.00 | 83 | 1017.2 |
| 20260831000020 | 20 | 0.0 | 3.2 | 0.00 | 0.00 | 0.00 | 83 | 1017.0 | |
| 20260830235020 | 20 | 270 | 1.6 | 8.0 | 0.00 | 0.00 | 0.00 | 82 | 1017.0 |
| 20260830234020 | 20 | 248 | 1.6 | 4.8 | 0.00 | 0.00 | 0.00 | 83 | 1017.0 |
| 20260830233044 | 20 | 0.0 | 3.2 | 0.00 | 0.00 | 0.00 | 82 | 1016.9 | |
| 20260830232020 | 20 | 248 | 1.6 | 4.8 | 0.00 | 0.00 | 0.00 | 83 | 1016.7 |
| 20260830231020 | 20 | 248 | 1.6 | 3.2 | 0.00 | 0.00 | 0.00 | 83 | 1016.8 |
| 20260830230041 | 20 | 225 | 3.2 | 6.4 | 0.00 | 0.00 | 0.00 | 82 | 1016.8 |
| 20260830225021 | 20 | 0.0 | 3.2 | 0.00 | 0.00 | 0.00 | 82 | 1016.9 | |
| 20260830224020 | 20 | 225 | 1.6 | 4.8 | 0.00 | 0.00 | 0.00 | 82 | 1016.9 |
| 20260830223040 | 20 | 248 | 1.6 | 6.4 | 0.00 | 0.00 | 0.00 | 82 | 1016.8 |
| 20260830222020 | 20 | 248 | 3.2 | 6.4 | 0.00 | 0.00 | 0.00 | 82 | 1017.0 |
| 20260830221020 | 20 | 270 | 1.6 | 4.8 | 0.00 | 0.00 | 0.00 | 82 | 1016.9 |
| 20260830220020 | 20 | 270 | 1.6 | 4.8 | 0.00 | 0.00 | 0.00 | 82 | 1016.8 |
| 20260830215020 | 20 | 270 | 1.6 | 6.4 | 0.00 | 0.00 | 0.00 | 82 | 1016.9 |
| 20260830214021 | 20 | 248 | 3.2 | 6.4 | 0.00 | 0.00 | 0.00 | 83 | 1016.8 |
| 20260830213042 | 20 | 0.0 | 1.6 | 0.00 | 0.00 | 0.00 | 83 | 1016.8 | |
| 20260830212022 | 20 | 225 | 1.6 | 4.8 | 0.00 | 0.00 | 0.00 | 83 | 1016.8 |
| 20260830211021 | 20 | 0.0 | 0.0 | 0.00 | 0.00 | 0.00 | 83 | 1016.9 | |
| 20260830210024 | 20 | 0.0 | 1.6 | 0.00 | 0.00 | 0.00 | 83 | 1016.9 | |
| 20260830205021 | 20 | 0.0 | 1.6 | 0.00 | 0.00 | 0.00 | 84 | 1017.0 | |
| 20260830204023 | 20 | 0.0 | 3.2 | 0.00 | 0.00 | 0.00 | 85 | 1017.0 | |
| 20260830203041 | 19 | 0.0 | 1.6 | 0.00 | 0.00 | 0.00 | 85 | 1016.9 | |
| 20260830202021 | 19 | 0.0 | 1.6 | 0.00 | 0.00 | 0.00 | 86 | 1016.9 | |
| 20260830201021 | 19 | 0 | 3.2 | 6.4 | 0.00 | 0.00 | 0.00 | 86 | 1017.1 |
| 20260830200024 | 19 | 338 | 3.2 | 8.0 | 0.00 | 0.00 | 0.00 | 85 | 1017.1 |
| 20260830195021 | 19 | 23 | 3.2 | 6.4 | 0.00 | 0.00 | 0.00 | 85 | 1017.1 |
| 20260830194021 | 19 | 0 | 3.2 | 4.8 | 0.00 | 0.00 | 0.00 | 85 | 1017.1 |
| 20260830193021 | 19 | 23 | 4.8 | 8.0 | 0.00 | 0.00 | 0.00 | 83 | 1017.2 |
| 20260830192022 | 20 | 338 | 3.2 | 6.4 | 0.00 | 0.00 | 0.00 | 83 | 1017.5 |
| 20260830191021 | 20 | 293 | 3.2 | 8.0 | 0.00 | 0.00 | 0.00 | 81 | 1017.6 |
| 20260830190041 | 20 | 293 | 4.8 | 9.7 | 0.00 | 0.00 | 0.00 | 81 | 1017.7 |
| 20260830185021 | 21 | 23 | 6.4 | 9.7 | 0.00 | 0.00 | 0.00 | 78 | 1017.7 |
| 20260830184021 | 21 | 338 | 8.0 | 14.5 | 0.00 | 0.00 | 0.00 | 76 | 1017.7 |
| 20260830183041 | 21 | 23 | 3.2 | 9.7 | 0.00 | 0.00 | 0.00 | 75 | 1017.7 |
| 20260830182021 | 21 | 293 | 6.4 | 11.3 | 0.00 | 0.00 | 0.00 | 74 | 1017.6 |
| 20260830181020 | 22 | 293 | 6.4 | 16.1 | 0.00 | 0.00 | 0.00 | 69 | 1017.6 |
| 20260830180021 | 22 | 338 | 8.0 | 14.5 | 0.00 | 0.00 | 0.00 | 65 | 1017.5 |
| 20260830175022 | 23 | 293 | 9.7 | 16.1 | 0.00 | 0.00 | 0.00 | 63 | 1017.4 |
| 20260830174041 | 23 | 293 | 6.4 | 12.9 | 0.00 | 0.00 | 0.00 | 64 | 1017.3 |
| 20260830173020 | 24 | 270 | 8.0 | 17.7 | 0.00 | 0.00 | 0.00 | 61 | 1017.3 |
| 20260830172020 | 23 | 315 | 4.8 | 8.0 | 0.00 | 0.00 | 0.00 | 60 | 1017.3 |
| 20260830171020 | 24 | 293 | 3.2 | 8.0 | 0.00 | 0.00 | 0.00 | 59 | 1017.3 |
| 20260830170020 | 23 | 270 | 4.8 | 11.3 | 0.00 | 0.00 | 0.00 | 60 | 1017.3 |
| 20260830165020 | 24 | 270 | 4.8 | 11.3 | 0.00 | 0.00 | 0.00 | 59 | 1017.1 |
| 20260830164021 | 24 | 203 | 6.4 | 16.1 | 0.00 | 0.00 | 0.00 | 60 | 1017.2 |
| 20260830163022 | 24 | 248 | 3.2 | 6.4 | 0.00 | 0.00 | 0.00 | 61 | 1017.3 |
| 20260830162040 | 23 | 203 | 3.2 | 8.0 | 0.00 | 0.00 | 0.00 | 60 | 1017.4 |
| 20260830161020 | 24 | 248 | 3.2 | 8.0 | 0.00 | 0.00 | 0.00 | 59 | 1017.4 |
| 20260830160020 | 24 | 203 | 3.2 | 9.7 | 0.00 | 0.00 | 0.00 | 59 | 1017.4 |
| 20260830155020 | 23 | 225 | 1.6 | 3.2 | 0.00 | 0.00 | 0.00 | 59 | 1017.4 |
| 20260830154020 | 23 | 248 | 3.2 | 6.4 | 0.00 | 0.00 | 0.00 | 61 | 1017.4 |
| 20260830153020 | 23 | 248 | 3.2 | 8.0 | 0.00 | 0.00 | 0.00 | 61 | 1017.5 |
| 20260830152020 | 24 | 180 | 1.6 | 6.4 | 0.00 | 0.00 | 0.00 | 60 | 1017.6 |
| 20260830151020 | 24 | 225 | 4.8 | 8.0 | 0.00 | 0.00 | 0.00 | 58 | 1017.5 |
| 20260830150023 | 24 | 0.0 | 1.6 | 0.00 | 0.00 | 0.00 | 59 | 1017.4 | |
| 20260830145020 | 23 | 158 | 1.6 | 6.4 | 0.00 | 0.00 | 0.00 | 60 | 1017.3 |
| 20260830144020 | 23 | 0.0 | 3.2 | 0.00 | 0.00 | 0.00 | 61 | 1017.4 | |
| 20260830143020 | 23 | 180 | 6.4 | 14.5 | 0.00 | 0.00 | 0.00 | 62 | 1017.2 |
| 20260830142020 | 22 | 180 | 8.0 | 16.1 | 0.00 | 0.00 | 0.00 | 61 | 1017.2 |
| 20260830141020 | 22 | 158 | 4.8 | 9.7 | 0.00 | 0.00 | 0.00 | 61 | 1017.2 |
| 20260830140040 | 22 | 158 | 4.8 | 11.3 | 0.00 | 0.00 | 0.00 | 61 | 1017.3 |
| 20260830135020 | 22 | 180 | 4.8 | 8.0 | 0.00 | 0.00 | 0.00 | 62 | 1017.3 |
| 20260830134020 | 22 | 158 | 1.6 | 8.0 | 0.00 | 0.00 | 0.00 | 62 | 1017.3 |
| 20260830133040 | 22 | 180 | 6.4 | 11.3 | 0.00 | 0.00 | 0.00 | 62 | 1017.3 |
| 20260830132020 | 22 | 158 | 6.4 | 11.3 | 0.00 | 0.00 | 0.00 | 62 | 1017.3 |
| 20260830131020 | 22 | 135 | 1.6 | 8.0 | 0.00 | 0.00 | 0.00 | 62 | 1017.3 |
| 20260830130021 | 22 | 158 | 4.8 | 8.0 | 0.00 | 0.00 | 0.00 | 62 | 1017.2 |
| 20260830125020 | 22 | 158 | 4.8 | 8.0 | 0.00 | 0.00 | 0.00 | 63 | 1017.2 |
| 20260830124020 | 21 | 158 | 8.0 | 12.9 | 0.00 | 0.00 | 0.00 | 63 | 1017.4 |
| 20260830123020 | 21 | 180 | 8.0 | 14.5 | 0.00 | 0.00 | 0.00 | 63 | 1017.5 |
| 20260830122021 | 21 | 180 | 6.4 | 12.9 | 0.00 | 0.00 | 0.00 | 63 | 1017.6 |
| 20260830121021 | 21 | 158 | 8.0 | 14.5 | 0.00 | 0.00 | 0.00 | 63 | 1017.5 |
| 20260830120041 | 21 | 158 | 9.7 | 17.7 | 0.00 | 0.00 | 0.00 | 63 | 1017.4 |
| 20260830115021 | 21 | 180 | 9.7 | 16.1 | 0.00 | 0.00 | 0.00 | 63 | 1017.4 |
| 20260830114021 | 20 | 158 | 4.8 | 9.7 | 0.00 | 0.00 | 0.00 | 63 | 1017.4 |
| 20260830113021 | 20 | 158 | 11.3 | 17.7 | 0.00 | 0.00 | 0.00 | 64 | 1017.5 |
| 20260830112021 | 20 | 135 | 3.2 | 9.7 | 0.00 | 0.00 | 0.00 | 64 | 1017.5 |
| 20260830111042 | 20 | 158 | 3.2 | 9.7 | 0.00 | 0.00 | 0.00 | 65 | 1017.5 |
| 20260830110021 | 20 | 135 | 3.2 | 6.4 | 0.00 | 0.00 | 0.00 | 65 | 1017.6 |
| 20260830105021 | 20 | 135 | 1.6 | 4.8 | 0.00 | 0.00 | 0.00 | 65 | 1017.6 |
| 20260830104021 | 20 | 113 | 1.6 | 4.8 | 0.00 | 0.00 | 0.00 | 65 | 1017.6 |
| 20260830103021 | 20 | 135 | 1.6 | 3.2 | 0.00 | 0.00 | 0.00 | 65 | 1017.6 |
| 20260830102021 | 20 | 135 | 1.6 | 3.2 | 0.00 | 0.00 | 0.00 | 65 | 1017.7 |
| 20260830101021 | 20 | 135 | 1.6 | 4.8 | 0.00 | 0.00 | 0.00 | 65 | 1017.7 |
| 20260830100021 | 20 | 135 | 1.6 | 4.8 | 0.00 | 0.00 | 0.00 | 64 | 1017.6 |
| 20260830095021 | 20 | 158 | 3.2 | 8.0 | 0.00 | 0.00 | 0.00 | 63 | 1017.7 |
| 20260830094021 | 21 | 158 | 1.6 | 9.7 | 0.00 | 0.00 | 0.00 | 62 | 1017.7 |
| 20260830093021 | 21 | 158 | 4.8 | 16.1 | 0.00 | 0.00 | 0.00 | 60 | 1017.8 |
| 20260830092021 | 21 | 158 | 6.4 | 16.1 | 0.00 | 0.00 | 0.00 | 60 | 1017.9 |
| 20260830091021 | 21 | 203 | 8.0 | 17.7 | 0.00 | 0.00 | 0.00 | 60 | 1018.0 |
| 20260830090021 | 21 | 180 | 3.2 | 6.4 | 0.00 | 0.00 | 0.00 | 60 | 1018.0 |
| 20260830085021 | 21 | 180 | 4.8 | 9.7 | 0.00 | 0.00 | 0.00 | 60 | 1018.2 |
| 20260830084021 | 21 | 203 | 4.8 | 11.3 | 0.00 | 0.00 | 0.00 | 60 | 1018.2 |
| 20260830083021 | 21 | 225 | 4.8 | 9.7 | 0.00 | 0.00 | 0.00 | 60 | 1018.3 |
| 20260830082040 | 22 | 225 | 4.8 | 9.7 | 0.00 | 0.00 | 0.00 | 59 | 1018.2 |
| 20260830081021 | 22 | 225 | 6.4 | 17.7 | 0.00 | 0.00 | 0.00 | 59 | 1018.1 |
| 20260830080020 | 22 | 225 | 6.4 | 17.7 | 0.00 | 0.00 | 0.00 | 59 | 1018.1 |
| 20260830075021 | 22 | 225 | 8.0 | 16.1 | 0.00 | 0.00 | 0.00 | 59 | 1018.2 |
| 20260830074021 | 22 | 203 | 4.8 | 11.3 | 0.00 | 0.00 | 0.00 | 59 | 1018.2 |
| 20260830073021 | 21 | 113 | 3.2 | 9.7 | 0.00 | 0.00 | 0.00 | 60 | 1018.4 |
| 20260830072020 | 21 | 158 | 3.2 | 11.3 | 0.00 | 0.00 | 0.00 | 60 | 1018.3 |
| 20260830071020 | 21 | 248 | 4.8 | 9.7 | 0.00 | 0.00 | 0.00 | 60 | 1018.3 |
| 20260830070021 | 21 | 248 | 4.8 | 14.5 | 0.00 | 0.00 | 0.00 | 64 | 1018.2 |
| 20260830065021 | 20 | 180 | 3.2 | 8.0 | 0.00 | 0.00 | 0.00 | 64 | 1018.3 |
| 20260830064040 | 20 | 158 | 4.8 | 8.0 | 0.00 | 0.00 | 0.00 | 65 | 1018.4 |
| 20260830063021 | 20 | 158 | 3.2 | 6.4 | 0.00 | 0.00 | 0.00 | 66 | 1018.3 |
| 20260830062020 | 20 | 158 | 3.2 | 4.8 | 0.00 | 0.00 | 0.00 | 65 | 1018.3 |
| 20260830061020 | 20 | 135 | 3.2 | 6.4 | 0.00 | 0.00 | 0.00 | 65 | 1018.3 |
| 20260830060041 | 20 | 158 | 6.4 | 8.0 | 0.00 | 0.00 | 0.00 | 66 | 1018.4 |
| 20260830055020 | 20 | 158 | 6.4 | 9.7 | 0.00 | 0.00 | 0.00 | 66 | 1018.4 |
| 20260830054020 | 20 | 158 | 8.0 | 9.7 | 0.00 | 0.00 | 0.00 | 66 | 1018.4 |
| 20260830053020 | 20 | 158 | 4.8 | 8.0 | 0.00 | 0.00 | 0.00 | 67 | 1018.4 |
| 20260830052040 | 20 | 158 | 6.4 | 9.7 | 0.00 | 0.00 | 0.00 | 67 | 1018.4 |
| 20260830051040 | 20 | 158 | 6.4 | 8.0 | 0.00 | 0.00 | 0.00 | 67 | 1018.4 |
| 20260830050020 | 20 | 158 | 4.8 | 8.0 | 0.00 | 0.00 | 0.00 | 68 | 1018.5 |
| 20260830045021 | 19 | 158 | 6.4 | 8.0 | 0.00 | 0.00 | 0.00 | 68 | 1018.5 |
| 20260830044044 | 19 | 158 | 6.4 | 8.0 | 0.00 | 0.00 | 0.00 | 68 | 1018.6 |
| 20260830043020 | 19 | 158 | 4.8 | 8.0 | 0.00 | 0.00 | 0.00 | 68 | 1018.6 |
| 20260830042020 | 19 | 158 | 4.8 | 8.0 | 0.00 | 0.00 | 0.00 | 68 | 1018.7 |
| 20260830041020 | 19 | 158 | 3.2 | 4.8 | 0.00 | 0.00 | 0.00 | 68 | 1018.6 |
| 20260830040021 | 19 | 135 | 1.6 | 4.8 | 0.00 | 0.00 | 0.00 | 67 | 1018.5 |
| 20260830035020 | 20 | 158 | 3.2 | 6.4 | 0.00 | 0.00 | 0.00 | 67 | 1018.4 |
| 20260830034040 | 20 | 158 | 3.2 | 6.4 | 0.00 | 0.00 | 0.00 | 66 | 1018.4 |
| 20260830033020 | 20 | 158 | 3.2 | 6.4 | 0.00 | 0.00 | 0.00 | 66 | 1018.4 |
| 20260830032040 | 20 | 158 | 3.2 | 6.4 | 0.00 | 0.00 | 0.00 | 66 | 1018.4 |
| 20260830031020 | 20 | 158 | 3.2 | 8.0 | 0.00 | 0.00 | 0.00 | 67 | 1018.3 |
| 20260830030020 | 20 | 180 | 1.6 | 4.8 | 0.00 | 0.00 | 0.00 | 66 | 1018.4 |
| 20260830025020 | 20 | 158 | 3.2 | 6.4 | 0.00 | 0.00 | 0.00 | 66 | 1018.5 |
| 20260830024020 | 20 | 158 | 4.8 | 9.7 | 0.00 | 0.00 | 0.00 | 66 | 1018.6 |
| 20260830023020 | 20 | 158 | 3.2 | 8.0 | 0.00 | 0.00 | 0.00 | 66 | 1018.6 |
| 20260830022020 | 20 | 180 | 3.2 | 8.0 | 0.00 | 0.00 | 0.00 | 66 | 1018.7 |
| 20260830021020 | 20 | 180 | 4.8 | 8.0 | 0.00 | 0.00 | 0.00 | 65 | 1018.6 |
| 20260830020020 | 20 | 158 | 6.4 | 11.3 | 0.00 | 0.00 | 0.00 | 65 | 1018.7 |
| 20260830015019 | 20 | 158 | 4.8 | 6.4 | 0.00 | 0.00 | 0.00 | 65 | 1018.6 |
| 20260830014021 | 20 | 158 | 3.2 | 8.0 | 0.00 | 0.00 | 0.00 | 65 | 1018.7 |